Tracking 27420 objects as of 11-Jun-2023
HD Live streaming from Space Station
objects crossing your sky now

STARLINK-30108

Track STARLINK-30108 now!
10-day predictions
STARLINK-30108 is classified as:


NORAD ID: 56299
Int'l Code: 2023-056P
Perigee: 490.8 km
Apogee: 492.4 km
Inclination: 43.0 °
Period: 94.3 minutes
Semi major axis: 6862 km
RCS: Unknown
Launch date: April 19, 2023
Source: United States (US)
Launch site: AIR FORCE EASTERN TEST RANGE (AFETR)
Your satellite tracking list
Your tracking list is empty




NASA's NSSDC Master Catalog

Two Line Element Set (TLE):
1 56299U 23056P   23161.58334491 -.00971004  00000-0 -38755-1 0  9999
2 56299  42.9994 253.2221 0001209 277.6684 198.3720 15.27114634  1307
Source of the keplerian elements: AFSPC